OV1-4 R/B, 2124

Orbit data source: Space-Track

OV1-4 R/B, 2124 is space debris in LEO originally from a launch on Wed, 30 Mar 1966 UTC launched from the Air Force Western Test Range (AFWTR). Debris objects in space refer to the collection of defunct objects orbiting the Earth. Examples of debris include non-operational satellites, rocket bodies, and fragments generated from explosions, collisions, or faulty payload assembly.

Loading next visibility...
OV1-4 R/B details
Identifier
2124, 1966-025D
Orbit
LEO
Last TLE update5 hours ago
Origin
Flag of USUSAF OAR (US)
ManufacturerABL
MissionSpacecraft
Bus & MotorALTAIR, Unknown motor
Mass~125 kg wet, ~125 kg dry
Launch date (UTC)
1966-03-30 (59 years ago)
Launch vehicleUnknown
Launch site
Air Force Western Test Range (AFWTR)
Object type
Payload
Rocket body
Debris
Shape & HBRCyl, 2.1 m
Radar Cross Section1.347 m², Medium (>0.1 m² and < 1m²)

Expand to show TLE details & history

TLE from 5 hours ago
0 OV1-4 R/B
1  2124U 66025D   25023.50473282  .00000565  00000-0  23916-3 0  9991
2  2124 144.5141  13.4325 0080042  66.8293 294.0801 13.87725214981177
Epoch: 2025-01-23T12:06Z
Definitive object data (Epoch: 2025-01-23T12:06:48.915Z)
Latitude-0°
Longitude68.64739°
Altitude912.143 km
Speed7.41 km/s
True Right ascension00h 53m 43s
True Declination0° 00' 00"
Sunlit
Object was in daylight at TLE epoch
Visualization TLE readout
Latitude31.83343°
Longitude9.77314°
Altitude878.371 km
Speed7.447 km/s
Apparent Right ascension00h 27m 06s
Apparent Declination-4° 31' 52"
Sunlit
Object is in daylight
Visualization observer readout
Local Sidereal Time18:48:51
Azimuth96.961° ESE
Elevation1.244°
Doppler factor1
Orbital elements
Apogee altitude998.169 km
Perigee altitude881.024 km
Semi-major axis7,317.734 km
Eccentricity0.0080042
Inclination144.5141°
RAAN13.4325°
Arg. of periapsis66.8293°
True anomaly293.2393°
Mean anomaly294.0801°
Eccentric anomaly293.66004°
Mean motion3.46719 °/min
BSTAR0.00023916
Orbital period103.83 mins
Loading maneuver chart data...
Loading historical data...
Loading historical data...
Loading historical data...
Loading historical data...
Loading historical data...
Loading historical data...
Loading historical data...

OV1-4 R/B Visibility forecast

Observer location: undefined°, undefined

Span
Click to sort rows by Start time (UTC) header in descending order
Start Az.
Max El. time (UTC)
Max El. Az.
Max El.
End time (UTC)
End Az.
9 mins2025-01-23 17:39:05.788Z104.112° ESE2025-01-23 17:43:05.788Z167.686° S39.872°2025-01-23 17:48:05.788Z256.917° W
8 mins2025-01-23 19:18:05.788Z128.024° SE2025-01-23 19:22:05.788Z206.123° SW34.923°2025-01-23 19:26:05.788Z262.387° W
7 mins2025-01-23 20:57:05.788Z162.223° S2025-01-23 21:00:05.788Z202.997° SW21.404°2025-01-23 21:04:05.788Z254.327° W
6 mins2025-01-24 14:35:05.788Z121.04° SE2025-01-24 14:37:05.788Z148.439° SSE20.089°2025-01-24 14:41:05.788Z199.317° SSW
9 mins2025-01-24 16:12:05.788Z100.63° ESE2025-01-24 16:16:05.788Z169.345° S34.368°2025-01-24 16:21:05.788Z236.909° WSW
|